Time,TemperatureF,DewpointF,PressureIn,WindDirection,WindDirectionDegrees,WindSpeedMPH,WindSpeedGustMPH,Humidity,HourlyPrecipIn,Conditions,Clouds,dailyrainin,SolarRadiationWatts/m^2,SoftwareType,DateUTC
2013-06-09 00:02:00,69.0,68.0,-100.00,WSW,248,1.0,2.0,97,0.00,,,0.00,0.000000,,2013-06-09 04:02:00,
2013-06-09 00:23:00,69.0,68.0,-100.00,WSW,248,1.0,2.0,97,0.00,,,0.00,0.000000,,2013-06-09 04:23:00,
2013-06-09 00:33:00,69.0,68.0,-100.00,WSW,248,1.0,2.0,97,0.00,,,0.00,0.000000,,2013-06-09 04:33:00,
2013-06-09 00:43:00,69.0,68.0,-100.00,WSW,248,1.0,2.0,97,0.00,,,0.00,0.000000,,2013-06-09 04:43:00,
2013-06-09 00:53:00,69.0,68.0,-100.00,WSW,248,1.0,2.0,97,0.00,,,0.00,0.000000,,2013-06-09 04:53:00,
2013-06-09 01:02:00,67.0,66.0,-100.00,North,5,1.0,2.0,98,0.00,,,0.00,0.000000,,2013-06-09 05:02:00,
2013-06-09 01:22:00,67.0,66.0,-100.00,North,5,1.0,2.0,98,0.00,,,0.00,0.000000,,2013-06-09 05:22:00,
2013-06-09 01:32:00,67.0,66.0,-100.00,North,5,1.0,2.0,98,0.00,,,0.00,0.000000,,2013-06-09 05:32:00,
2013-06-09 01:42:00,67.0,66.0,-100.00,North,5,1.0,2.0,98,0.00,,,0.00,0.000000,,2013-06-09 05:42:00,
2013-06-09 01:52:00,67.0,66.0,-100.00,North,5,1.0,2.0,98,0.00,,,0.00,0.000000,,2013-06-09 05:52:00,
2013-06-09 02:02:00,67.0,66.0,-100.00,North,350,1.0,2.0,98,0.00,,,0.00,0.000000,,2013-06-09 06:02:00,
2013-06-09 02:22:00,67.0,66.0,-100.00,North,350,1.0,2.0,98,0.00,,,0.00,0.000000,,2013-06-09 06:22:00,
2013-06-09 02:32:00,67.0,66.0,-100.00,North,350,1.0,2.0,98,0.00,,,0.00,0.000000,,2013-06-09 06:32:00,
2013-06-09 02:42:00,67.0,66.0,-100.00,North,350,1.0,2.0,98,0.00,,,0.00,0.000000,,2013-06-09 06:42:00,
2013-06-09 02:52:00,67.0,66.0,-100.00,North,350,1.0,2.0,98,0.00,,,0.00,0.000000,,2013-06-09 06:52:00,
2013-06-09 03:02:00,66.0,65.0,-100.00,NNW,337,2.0,3.0,98,0.00,,,0.00,0.000000,,2013-06-09 07:02:00,
2013-06-09 03:22:00,66.0,65.0,-100.00,NNW,337,2.0,3.0,98,0.00,,,0.00,0.000000,,2013-06-09 07:22:00,
2013-06-09 03:32:00,66.0,65.0,-100.00,NNW,337,2.0,3.0,98,0.00,,,0.00,0.000000,,2013-06-09 07:32:00,
2013-06-09 03:42:00,66.0,65.0,-100.00,NNW,337,2.0,3.0,98,0.00,,,0.00,0.000000,,2013-06-09 07:42:00,
2013-06-09 03:53:00,66.0,65.0,-100.00,NNW,337,2.0,3.0,98,0.00,,,0.00,0.000000,,2013-06-09 07:53:00,
2013-06-09 04:02:00,66.0,66.0,-100.00,North,5,1.0,3.0,99,0.00,,,0.00,0.000000,,2013-06-09 08:02:00,
2013-06-09 04:22:00,66.0,66.0,-100.00,North,5,1.0,3.0,99,0.00,,,0.00,0.000000,,2013-06-09 08:22:00,
2013-06-09 04:32:00,66.0,66.0,-100.00,North,5,1.0,3.0,99,0.00,,,0.00,0.000000,,2013-06-09 08:32:00,
2013-06-09 04:42:00,66.0,66.0,-100.00,North,5,1.0,3.0,99,0.00,,,0.00,0.000000,,2013-06-09 08:42:00,
2013-06-09 04:53:00,66.0,66.0,-100.00,North,5,1.0,3.0,99,0.00,,,0.00,0.000000,,2013-06-09 08:53:00,
2013-06-09 05:02:00,66.0,66.0,-100.00,ESE,107,1.0,3.0,99,0.00,,,0.00,0.000000,,2013-06-09 09:02:00,
2013-06-09 05:22:00,66.0,66.0,-100.00,ESE,107,1.0,3.0,99,0.00,,,0.00,0.000000,,2013-06-09 09:22:00,
2013-06-09 05:33:00,66.0,66.0,-100.00,ESE,107,1.0,3.0,99,0.00,,,0.00,0.000000,,2013-06-09 09:33:00,
2013-06-09 05:43:00,66.0,66.0,-100.00,ESE,107,1.0,3.0,99,0.00,,,0.00,0.000000,,2013-06-09 09:43:00,
2013-06-09 05:53:00,66.0,66.0,-100.00,ESE,107,1.0,3.0,99,0.00,,,0.00,0.000000,,2013-06-09 09:53:00,
2013-06-09 06:02:00,65.0,65.0,-100.00,North,349,2.0,3.0,99,0.00,,,0.00,0.000000,,2013-06-09 10:02:00,
2013-06-09 06:23:00,65.0,65.0,-100.00,North,349,2.0,3.0,99,0.00,,,0.00,0.000000,,2013-06-09 10:23:00,
2013-06-09 06:32:00,65.0,65.0,-100.00,North,349,2.0,3.0,99,0.00,,,0.00,0.000000,,2013-06-09 10:32:00,
2013-06-09 06:43:00,65.0,65.0,-100.00,North,349,2.0,3.0,99,0.00,,,0.00,0.000000,,2013-06-09 10:43:00,
2013-06-09 06:52:00,65.0,65.0,-100.00,North,349,2.0,3.0,99,0.00,,,0.00,0.000000,,2013-06-09 10:52:00,
2013-06-09 07:02:00,65.0,65.0,-100.00,NNE,15,1.0,3.0,99,0.00,,,0.00,4.000000,,2013-06-09 11:02:00,
2013-06-09 07:22:00,65.0,65.0,-100.00,NNE,15,1.0,3.0,99,0.00,,,0.00,4.000000,,2013-06-09 11:22:00,
2013-06-09 07:32:00,65.0,65.0,-100.00,NNE,15,1.0,3.0,99,0.00,,,0.00,4.000000,,2013-06-09 11:32:00,
2013-06-09 07:42:00,65.0,65.0,-100.00,NNE,15,1.0,3.0,99,0.00,,,0.00,4.000000,,2013-06-09 11:42:00,
2013-06-09 07:53:00,65.0,65.0,-100.00,NNE,15,1.0,3.0,99,0.00,,,0.00,4.000000,,2013-06-09 11:53:00,
2013-06-09 08:02:00,67.0,67.0,-100.00,NNE,22,1.0,2.0,99,0.00,,,0.00,55.000000,,2013-06-09 12:02:00,
2013-06-09 08:22:00,67.0,67.0,-100.00,NNE,22,1.0,2.0,99,0.00,,,0.00,55.000000,,2013-06-09 12:22:00,
2013-06-09 08:32:00,67.0,67.0,-100.00,NNE,22,1.0,2.0,99,0.00,,,0.00,55.000000,,2013-06-09 12:32:00,
2013-06-09 08:42:00,67.0,67.0,-100.00,NNE,22,1.0,2.0,99,0.00,,,0.00,55.000000,,2013-06-09 12:42:00,
2013-06-09 08:53:00,67.0,67.0,-100.00,NNE,22,1.0,2.0,99,0.00,,,0.00,55.000000,,2013-06-09 12:53:00,
2013-06-09 09:02:00,74.0,70.0,-100.00,ESE,112,2.0,6.0,87,0.00,,,0.00,210.000000,,2013-06-09 13:02:00,
2013-06-09 09:23:00,74.0,70.0,-100.00,ESE,112,2.0,6.0,87,0.00,,,0.00,210.000000,,2013-06-09 13:23:00,
2013-06-09 09:32:00,74.0,70.0,-100.00,ESE,112,2.0,6.0,87,0.00,,,0.00,210.000000,,2013-06-09 13:32:00,
2013-06-09 09:42:00,74.0,70.0,-100.00,ESE,112,2.0,6.0,87,0.00,,,0.00,210.000000,,2013-06-09 13:42:00,
2013-06-09 09:52:00,74.0,70.0,-100.00,ESE,112,2.0,6.0,87,0.00,,,0.00,210.000000,,2013-06-09 13:52:00,
2013-06-09 10:02:00,80.0,72.0,-100.00,ENE,78,2.0,5.0,77,0.00,,,0.00,460.000000,,2013-06-09 14:02:00,
2013-06-09 10:22:00,80.0,72.0,-100.00,ENE,78,2.0,5.0,77,0.00,,,0.00,460.000000,,2013-06-09 14:22:00,
2013-06-09 10:32:00,80.0,72.0,-100.00,ENE,78,2.0,5.0,77,0.00,,,0.00,460.000000,,2013-06-09 14:32:00,
2013-06-09 11:02:00,81.0,70.0,-100.00,SSE,163,2.0,5.0,69,0.00,,,0.00,467.000000,,2013-06-09 15:02:00,
2013-06-09 11:22:00,81.0,70.0,-100.00,SSE,163,2.0,5.0,69,0.00,,,0.00,467.000000,,2013-06-09 15:22:00,
2013-06-09 11:33:00,81.0,70.0,-100.00,SSE,163,2.0,5.0,69,0.00,,,0.00,467.000000,,2013-06-09 15:33:00,
2013-06-09 11:44:00,81.0,70.0,-100.00,SSE,163,2.0,5.0,69,0.00,,,0.00,467.000000,,2013-06-09 15:44:00,
2013-06-09 11:53:00,81.0,70.0,-100.00,SSE,163,2.0,5.0,69,0.00,,,0.00,467.000000,,2013-06-09 15:53:00,
2013-06-09 12:23:00,86.0,70.0,-100.00,South,186,2.0,5.0,59,0.00,,,0.00,728.000000,,2013-06-09 16:23:00,
2013-06-09 12:33:00,86.0,70.0,-100.00,South,186,2.0,5.0,59,0.00,,,0.00,728.000000,,2013-06-09 16:33:00,
2013-06-09 13:02:00,87.0,72.0,-100.00,South,175,2.0,4.0,61,-99.99,,,0.00,896.000000,,2013-06-09 17:02:00,
2013-06-09 13:22:00,87.0,72.0,-100.00,South,175,2.0,4.0,61,-99.99,,,0.00,896.000000,,2013-06-09 17:22:00,
2013-06-09 13:32:00,87.0,72.0,-100.00,South,175,2.0,4.0,61,-99.99,,,0.00,896.000000,,2013-06-09 17:32:00,
2013-06-09 14:02:00,77.0,71.0,-100.00,South,170,2.0,4.0,83,-99.99,,,0.00,334.000000,,2013-06-09 18:02:00,
2013-06-09 14:22:00,77.0,71.0,-100.00,South,170,2.0,4.0,83,-99.99,,,0.00,334.000000,,2013-06-09 18:22:00,
2013-06-09 14:33:00,77.0,71.0,-100.00,South,170,2.0,4.0,83,-99.99,,,0.00,334.000000,,2013-06-09 18:33:00,
2013-06-09 14:42:00,77.0,71.0,-100.00,South,170,2.0,4.0,83,-99.99,,,0.00,334.000000,,2013-06-09 18:42:00,
2013-06-09 14:52:00,77.0,71.0,-100.00,South,170,2.0,4.0,83,-99.99,,,0.00,334.000000,,2013-06-09 18:52:00,
2013-06-09 15:02:00,79.0,71.0,-100.00,South,169,2.0,6.0,77,0.03,,,0.03,494.000000,,2013-06-09 19:02:00,
2013-06-09 15:22:00,79.0,71.0,-100.00,South,169,2.0,6.0,77,0.03,,,0.03,494.000000,,2013-06-09 19:22:00,
2013-06-09 15:32:00,79.0,71.0,-100.00,South,169,2.0,6.0,77,0.03,,,0.03,494.000000,,2013-06-09 19:32:00,
2013-06-09 15:43:00,79.0,71.0,-100.00,South,169,2.0,6.0,77,0.03,,,0.03,494.000000,,2013-06-09 19:43:00,
2013-06-09 15:52:00,79.0,71.0,-100.00,South,169,2.0,6.0,77,0.03,,,0.03,494.000000,,2013-06-09 19:52:00,
2013-06-09 16:02:00,80.0,69.0,-100.00,West,279,3.0,7.0,70,0.00,,,0.03,608.000000,,2013-06-09 20:02:00,
2013-06-09 16:22:00,80.0,69.0,-100.00,West,279,3.0,7.0,70,0.00,,,0.03,608.000000,,2013-06-09 20:22:00,
2013-06-09 16:32:00,80.0,69.0,-100.00,West,279,3.0,7.0,70,0.00,,,0.03,608.000000,,2013-06-09 20:32:00,
2013-06-09 16:42:00,80.0,69.0,-100.00,West,279,3.0,7.0,70,0.00,,,0.03,608.000000,,2013-06-09 20:42:00,
2013-06-09 16:52:00,80.0,69.0,-100.00,West,279,3.0,7.0,70,0.00,,,0.03,608.000000,,2013-06-09 20:52:00,
2013-06-09 17:02:00,74.0,71.0,-100.00,South,170,2.0,4.0,91,0.02,,,0.05,125.000000,,2013-06-09 21:02:00,
2013-06-09 17:22:00,74.0,71.0,-100.00,South,170,2.0,4.0,91,0.02,,,0.05,125.000000,,2013-06-09 21:22:00,
2013-06-09 17:33:00,74.0,71.0,-100.00,South,170,2.0,4.0,91,0.02,,,0.05,125.000000,,2013-06-09 21:33:00,
2013-06-09 17:44:00,74.0,71.0,-100.00,South,170,2.0,4.0,91,0.02,,,0.05,125.000000,,2013-06-09 21:44:00,
2013-06-09 17:53:00,74.0,71.0,-100.00,South,170,2.0,4.0,91,0.02,,,0.05,125.000000,,2013-06-09 21:53:00,
2013-06-09 18:02:00,71.0,70.0,-100.00,West,266,1.0,5.0,97,0.31,,,0.36,115.000000,,2013-06-09 22:02:00,
2013-06-09 18:23:00,71.0,70.0,-100.00,West,266,1.0,5.0,97,0.31,,,0.36,115.000000,,2013-06-09 22:23:00,
2013-06-09 18:33:00,71.0,70.0,-100.00,West,266,1.0,5.0,97,0.31,,,0.36,115.000000,,2013-06-09 22:33:00,
2013-06-09 18:42:00,71.0,70.0,-100.00,West,266,1.0,5.0,97,0.31,,,0.36,115.000000,,2013-06-09 22:42:00,
2013-06-09 18:52:00,71.0,70.0,-100.00,West,266,1.0,5.0,97,0.31,,,0.36,115.000000,,2013-06-09 22:52:00,
2013-06-09 19:02:00,71.0,70.0,-100.00,SE,133,2.0,3.0,98,0.09,,,0.45,50.000000,,2013-06-09 23:02:00,
2013-06-09 19:22:00,71.0,70.0,-100.00,SE,133,2.0,3.0,98,0.09,,,0.45,50.000000,,2013-06-09 23:22:00,
2013-06-09 19:32:00,71.0,70.0,-100.00,SE,133,2.0,3.0,98,0.09,,,0.45,50.000000,,2013-06-09 23:32:00,
2013-06-09 19:43:00,71.0,70.0,-100.00,SE,133,2.0,3.0,98,0.09,,,0.45,50.000000,,2013-06-09 23:43:00,
2013-06-09 19:52:00,71.0,70.0,-100.00,SE,133,2.0,3.0,98,0.09,,,0.45,50.000000,,2013-06-09 23:52:00,
2013-06-09 20:02:00,71.0,70.0,-100.00,ESE,122,1.0,2.0,98,0.01,,,0.46,57.000000,,2013-06-10 00:02:00,
2013-06-09 20:22:00,71.0,70.0,-100.00,ESE,122,1.0,2.0,98,0.01,,,0.46,57.000000,,2013-06-10 00:22:00,
2013-06-09 20:32:00,71.0,70.0,-100.00,ESE,122,1.0,2.0,98,0.01,,,0.46,57.000000,,2013-06-10 00:32:00,
2013-06-09 20:42:00,71.0,70.0,-100.00,ESE,122,1.0,2.0,98,0.01,,,0.46,57.000000,,2013-06-10 00:42:00,
2013-06-09 20:52:00,71.0,70.0,-100.00,ESE,122,1.0,2.0,98,0.01,,,0.46,57.000000,,2013-06-10 00:52:00,
2013-06-09 21:02:00,70.0,70.0,-100.00,SSW,204,1.0,2.0,99,0.00,,,0.46,9.000000,,2013-06-10 01:02:00,
2013-06-09 21:22:00,70.0,70.0,-100.00,SSW,204,1.0,2.0,99,0.00,,,0.46,9.000000,,2013-06-10 01:22:00,
2013-06-09 21:32:00,70.0,70.0,-100.00,SSW,204,1.0,2.0,99,0.00,,,0.46,9.000000,,2013-06-10 01:32:00,
2013-06-09 21:43:00,70.0,70.0,-100.00,SSW,204,1.0,2.0,99,0.00,,,0.46,9.000000,,2013-06-10 01:43:00,
2013-06-09 21:52:00,70.0,70.0,-100.00,SSW,204,1.0,2.0,99,0.00,,,0.46,9.000000,,2013-06-10 01:52:00,
2013-06-09 22:02:00,70.0,70.0,-100.00,South,172,1.0,2.0,99,0.01,,,0.47,0.000000,,2013-06-10 02:02:00,
2013-06-09 22:22:00,70.0,70.0,-100.00,South,172,1.0,2.0,99,0.01,,,0.47,0.000000,,2013-06-10 02:22:00,
2013-06-09 22:32:00,70.0,70.0,-100.00,South,172,1.0,2.0,99,0.01,,,0.47,0.000000,,2013-06-10 02:32:00,
2013-06-09 22:42:00,70.0,70.0,-100.00,South,172,1.0,2.0,99,0.01,,,0.47,0.000000,,2013-06-10 02:42:00,
2013-06-09 22:52:00,70.0,70.0,-100.00,South,172,1.0,2.0,99,0.01,,,0.47,0.000000,,2013-06-10 02:52:00,
2013-06-09 23:02:00,70.0,70.0,-100.00,South,176,2.0,3.0,100,0.00,,,0.47,0.000000,,2013-06-10 03:02:00,
2013-06-09 23:22:00,70.0,70.0,-100.00,South,176,2.0,3.0,100,0.00,,,0.47,0.000000,,2013-06-10 03:22:00,
2013-06-09 23:33:00,70.0,70.0,-100.00,South,176,2.0,3.0,100,0.00,,,0.47,0.000000,,2013-06-10 03:33:00,
2013-06-09 23:43:00,70.0,70.0,-100.00,South,176,2.0,3.0,100,0.00,,,0.47,0.000000,,2013-06-10 03:43:00,
2013-06-09 23:53:00,70.0,70.0,-100.00,South,176,2.0,3.0,100,0.00,,,0.47,0.000000,,2013-06-10 03:53:00,